STARLINK-35289

Last updated on Mon Oct 20 2025 00:02:07 GMT+0000 (Coordinated Universal Time)

1 65809U 25218U 25292.26053362 .00170024 00000+0 30540-2 0 9990 2 65809 97.6026 152.8424 0001634 92.5139 267.6298 15.49250782 3645
UTC large
Height (km)
Speed (km/s)
/
Latitude / Longitude
Inclination (degrees)
Orbital Period (minutes)
Azimuth
Elevation
Range (km)
Doppler Factor

Next 0 passes for location: London (51.5072 / 0.1276)

Sorry there are no passes over London.